Flag for Latvia Weather past 2 weeks in Jelgava, Latvia

Now
37 °F

Passing clouds.


Feels Like: 29 °F
Forecast: 34 / 49 °F
Wind: 14 mph from North

Location: Riga Airport

Current Time: Apr 18, 2015 at 6:45:21 AM

Latest Report: Apr 18, 2015 at 5:50 AM


Visibility: N/A

Pressure: 29.92 "Hg

Humidity: 87%

Dew point: 34 °F

Location of JelgavaLocation

Historic Weather in Jelgava — Graph

°F

Jelgava temperature yesterday

Maximum temperature yesterday: 43 °F (at 12:20 PM)
Minimum temperature yesterday: 36 °F (at 4:20 AM)
Average temperature yesterday: 39 °F

Past Weeks' High & Low Weather Summary

 TemperatureHumidityPressure
High66 °F (Apr 11, 4:20 PM)100% (Apr 3, 5:20 AM)30.33 "Hg (Apr 3, 5:20 AM)
Low30 °F (Apr 7, 2:20 AM)33% (Apr 9, 12:50 PM)29.15 "Hg (Apr 16, 3:20 AM)
Average42 °F79%29.88 "Hg
* Reported Apr 3 5:20 AM — Apr 18 5:20 AM, Jelgava, Weather by CustomWeather, © 2015

Note: Actual official high and low records may vary slightly from our data, if they occured in-between our weather recording intervals... More about our weather records

Advertising

Jelgava weather history for previous 24 hours

 ConditionsComfort  
Time TempWeatherWind HumidityBarometerVisibility
5:20 AM
Sat, Apr 18
39 °FPassing clouds.13 mph87%29.92 "HgN/A
4:50 AM37 °FPassing clouds.15 mph87%29.92 "HgN/A
4:20 AM37 °FPassing clouds.14 mph87%29.92 "HgN/A
3:50 AM37 °FPassing clouds.10 mph87%29.92 "HgN/A
3:20 AM37 °FPassing clouds.12 mph87%29.92 "HgN/A
2:50 AM37 °FPassing clouds.10 mph87%29.89 "HgN/A
2:20 AM37 °FPassing clouds.9 mph87%29.89 "HgN/A
1:50 AM39 °FPassing clouds.13 mph81%29.89 "HgN/A
1:20 AM39 °FPassing clouds.13 mph87%29.89 "HgN/A
12:50 AM39 °FPartly cloudy.14 mph87%29.86 "HgN/A
12:20 AM39 °FPartly cloudy.12 mph87%29.86 "HgN/A
11:50 PM
Fri, Apr 17
39 °FPartly cloudy.10 mph87%29.86 "HgN/A
11:20 PM39 °FPartly cloudy.10 mph87%29.83 "HgN/A
10:50 PM39 °FPartly cloudy.12 mph87%29.83 "HgN/A
10:20 PM39 °FPartly cloudy.9 mph87%29.83 "HgN/A
9:50 PM39 °FSprinkles. Partly cloudy.9 mph93%29.80 "HgN/A
9:20 PM37 °FBroken clouds.6 mph93%29.80 "HgN/A
8:50 PM37 °FScattered clouds.8 mph93%29.80 "HgN/A
8:20 PM39 °FPartly sunny.8 mph87%29.77 "HgN/A
7:50 PM39 °FBroken clouds.10 mph87%29.77 "HgN/A
7:20 PM39 °FBroken clouds.12 mph87%29.74 "HgN/A
6:50 PM39 °FBroken clouds.10 mph87%29.74 "HgN/A
6:20 PM39 °FBroken clouds.13 mph87%29.74 "HgN/A
5:50 PM41 °FBroken clouds.12 mph81%29.74 "HgN/A
5:20 PM41 °FScattered clouds.9 mph81%29.71 "HgN/A
4:50 PM41 °FScattered clouds.10 mph81%29.71 "HgN/A
4:20 PM41 °FPartly sunny.10 mph81%29.71 "HgN/A
3:50 PM43 °FPartly sunny.10 mph71%29.68 "HgN/A
3:20 PM43 °FPartly sunny.10 mph71%29.68 "HgN/A
2:50 PM43 °FBroken clouds.12 mph66%29.68 "HgN/A
2:20 PM43 °FBroken clouds.10 mph61%29.65 "HgN/A
1:50 PM43 °FBroken clouds.12 mph66%29.65 "HgN/A
1:20 PM41 °FBroken clouds.9 mph70%29.65 "HgN/A
12:50 PM41 °FBroken clouds.10 mph70%29.65 "HgN/A
12:20 PM43 °FBroken clouds.10 mph61%29.62 "HgN/A
11:50 AM41 °FBroken clouds.8 mph66%29.62 "HgN/A
11:20 AM39 °FBroken clouds.10 mph75%29.62 "HgN/A
10:50 AM39 °FMore clouds than sun.10 mph87%29.59 "HgN/A
10:20 AM39 °FBroken clouds.8 mph87%29.59 "HgN/A
9:50 AM37 °FBroken clouds.9 mph93%29.59 "HgN/A
9:20 AM37 °FBroken clouds.7 mph93%29.59 "HgN/A
8:50 AM36 °FSprinkles. Mostly cloudy.8 mph100%29.59 "HgN/A
8:20 AM37 °FSprinkles. Mostly cloudy.10 mph93%29.56 "HgN/A
7:50 AM37 °FSprinkles. More clouds than sun.8 mph100%29.56 "Hg6 mi
7:20 AM37 °FSprinkles. More clouds than sun.7 mph100%29.56 "HgN/A
6:20 AM37 °FPassing clouds.5 mph93%29.53 "HgN/A
Weather by CustomWeather, © 2015

See weather overviewHow to use our weather pages